sat.trackr.live / text

‹ back to catalog

STARLINK-33766

NORAD 63472 · 2025-070N

PAYLOAD ACTIVE UNKNOWN

§ Identity

Operator
Country
US
Launch date
2025-04-06
Launch site
AFETR
Launch vehicle
Mass (kg)
RCS (m²)

Purposes: comms

External: N2YO · Heavens-Above · Gunter

§ Orbital elements

Epoch: 2026-09-20T22:36:02.600064Z

Period
94.27 min
Inclination
42.9997°
Eccentricity
0.0001421
Mean motion
15.27586011 rev/d
Perigee alt
482.1 km
Apogee alt
484.0 km
Semi-major
6,861.2 km
B*
3.4038e-4
RAAN
237.4719°
Arg perigee
259.6302°
Mean anomaly
100.4389°
Rev number
8,283

§ Raw data

STARLINK-337661 63472U 25070N   26263.94169676  .00009118  00000+0  34038-3 0  99922 63472  42.9997 237.4719 0001421 259.6302 100.4389 15.27586011 82834

JSON: /api/v1/satellites/63472 · /tle

For live sub-satellite position, see the globe view (requires WebGL).

§ Visibility from observer

Set your observer location to see the next 7 days of passes ≥ 10°. The values pass through the URL so the page stays shareable.

No JS? Fill the form by hand. The geolocation button needs JavaScript.